segment_id,date_local,uptime,ped_lft,ped_rgt,ped_total,bike_lft,bike_rgt,bike_total,car_lft,car_rgt,car_total,heavy_lft,heavy_rgt,heavy_total,v85,car_speed0,car_speed10,car_speed20,car_speed30,car_speed40,car_speed50,car_speed60,car_speed70
100024661,2022-01-01 00:00,1.0,,,,10,11,21,,,,,,,
100024661,2022-01-01 01:00,1.0,,,,22,13,35,,,,,,,
100024661,2022-01-01 02:00,1.0,,,,25,10,35,,,,,,,
100024661,2022-01-01 03:00,1.0,,,,12,21,33,,,,,,,
100024661,2022-01-01 04:00,1.0,,,,8,6,14,,,,,,,
100024661,2022-01-01 05:00,1.0,,,,8,8,16,,,,,,,
100024661,2022-01-01 06:00,1.0,,,,9,3,12,,,,,,,
100024661,2022-01-01 07:00,1.0,,,,9,5,14,,,,,,,
100024661,2022-01-01 08:00,1.0,,,,9,8,17,,,,,,,
100024661,2022-01-01 09:00,1.0,,,,9,10,19,,,,,,,
100024661,2022-01-01 10:00,1.0,,,,14,8,22,,,,,,,
100024661,2022-01-01 11:00,1.0,,,,19,16,35,,,,,,,
100024661,2022-01-01 12:00,1.0,,,,36,36,72,,,,,,,
100024661,2022-01-01 13:00,1.0,,,,51,43,94,,,,,,,
100024661,2022-01-01 14:00,1.0,,,,64,60,124,,,,,,,
100024661,2022-01-01 15:00,1.0,,,,57,60,117,,,,,,,
100024661,2022-01-01 16:00,1.0,,,,73,58,131,,,,,,,
100024661,2022-01-01 17:00,1.0,,,,49,42,91,,,,,,,
100024661,2022-01-01 18:00,1.0,,,,42,51,93,,,,,,,
100024661,2022-01-01 19:00,1.0,,,,43,39,82,,,,,,,
100024661,2022-01-01 20:00,1.0,,,,36,37,73,,,,,,,
100024661,2022-01-01 21:00,1.0,,,,24,17,41,,,,,,,
100024661,2022-01-01 22:00,1.0,,,,39,24,63,,,,,,,
100024661,2022-01-01 23:00,1.0,,,,17,23,40,,,,,,,
100024661,2022-01-02 00:00,1.0,,,,11,11,22,,,,,,,
100024661,2022-01-02 01:00,1.0,,,,1,9,10,,,,,,,
100024661,2022-01-02 02:00,1.0,,,,3,4,7,,,,,,,
100024661,2022-01-02 03:00,1.0,,,,1,8,9,,,,,,,
100024661,2022-01-02 04:00,1.0,,,,2,0,2,,,,,,,
100024661,2022-01-02 05:00,1.0,,,,3,3,6,,,,,,,
100024661,2022-01-02 06:00,1.0,,,,3,7,10,,,,,,,
100024661,2022-01-02 07:00,1.0,,,,7,5,12,,,,,,,
100024661,2022-01-02 08:00,1.0,,,,16,9,25,,,,,,,
100024661,2022-01-02 09:00,1.0,,,,19,20,39,,,,,,,
100024661,2022-01-02 10:00,1.0,,,,28,33,61,,,,,,,
100024661,2022-01-02 11:00,1.0,,,,36,25,61,,,,,,,
100024661,2022-01-02 12:00,1.0,,,,46,40,86,,,,,,,
100024661,2022-01-02 13:00,1.0,,,,38,51,89,,,,,,,
100024661,2022-01-02 14:00,1.0,,,,55,54,109,,,,,,,
100024661,2022-01-02 15:00,1.0,,,,65,46,111,,,,,,,
100024661,2022-01-02 16:00,1.0,,,,38,47,85,,,,,,,
100024661,2022-01-02 17:00,1.0,,,,54,51,105,,,,,,,
100024661,2022-01-02 18:00,1.0,,,,55,65,120,,,,,,,
100024661,2022-01-02 19:00,1.0,,,,61,42,103,,,,,,,
100024661,2022-01-02 20:00,1.0,,,,38,33,71,,,,,,,
100024661,2022-01-02 21:00,1.0,,,,30,24,54,,,,,,,
100024661,2022-01-02 22:00,1.0,,,,32,35,67,,,,,,,
100024661,2022-01-02 23:00,1.0,,,,17,17,34,,,,,,,
100024661,2022-01-03 00:00,1.0,,,,9,9,18,,,,,,,
100024661,2022-01-03 01:00,1.0,,,,3,6,9,,,,,,,
100024661,2022-01-03 02:00,1.0,,,,5,1,6,,,,,,,
100024661,2022-01-03 03:00,1.0,,,,1,2,3,,,,,,,
100024661,2022-01-03 04:00,1.0,,,,5,4,9,,,,,,,
100024661,2022-01-03 05:00,1.0,,,,7,10,17,,,,,,,
100024661,2022-01-03 06:00,1.0,,,,29,57,86,,,,,,,
100024661,2022-01-03 07:00,1.0,,,,73,135,208,,,,,,,
100024661,2022-01-03 08:00,1.0,,,,154,262,416,,,,,,,
100024661,2022-01-03 09:00,1.0,,,,165,240,405,,,,,,,
100024661,2022-01-03 10:00,1.0,,,,83,113,196,,,,,,,
100024661,2022-01-03 11:00,1.0,,,,138,104,242,,,,,,,
100024661,2022-01-03 12:00,1.0,,,,121,102,223,,,,,,,
100024661,2022-01-03 13:00,1.0,,,,138,132,270,,,,,,,
100024661,2022-01-03 14:00,1.0,,,,165,138,303,,,,,,,
100024661,2022-01-03 15:00,1.0,,,,213,159,372,,,,,,,
100024661,2022-01-03 16:00,1.0,,,,212,164,376,,,,,,,
100024661,2022-01-03 17:00,1.0,,,,253,190,443,,,,,,,
100024661,2022-01-03 18:00,1.0,,,,256,192,448,,,,,,,
100024661,2022-01-03 19:00,1.0,,,,172,156,328,,,,,,,
100024661,2022-01-03 20:00,1.0,,,,82,100,182,,,,,,,
100024661,2022-01-03 21:00,1.0,,,,59,50,109,,,,,,,
100024661,2022-01-03 22:00,1.0,,,,43,43,86,,,,,,,
100024661,2022-01-03 23:00,1.0,,,,27,20,47,,,,,,,
100024661,2022-01-04 00:00,1.0,,,,22,11,33,,,,,,,
100024661,2022-01-04 01:00,1.0,,,,7,10,17,,,,,,,
100024661,2022-01-04 02:00,1.0,,,,5,3,8,,,,,,,
100024661,2022-01-04 03:00,1.0,,,,3,2,5,,,,,,,
100024661,2022-01-04 04:00,1.0,,,,8,6,14,,,,,,,
100024661,2022-01-04 05:00,1.0,,,,7,17,24,,,,,,,
100024661,2022-01-04 06:00,1.0,,,,34,73,107,,,,,,,
100024661,2022-01-04 07:00,1.0,,,,102,171,273,,,,,,,
100024661,2022-01-04 08:00,1.0,,,,198,358,556,,,,,,,
100024661,2022-01-04 09:00,1.0,,,,195,274,469,,,,,,,
100024661,2022-01-04 10:00,1.0,,,,94,111,205,,,,,,,
100024661,2022-01-04 11:00,1.0,,,,91,80,171,,,,,,,
100024661,2022-01-04 12:00,1.0,,,,83,74,157,,,,,,,
100024661,2022-01-04 13:00,1.0,,,,109,98,207,,,,,,,
100024661,2022-01-04 14:00,1.0,,,,125,126,251,,,,,,,
100024661,2022-01-04 15:00,1.0,,,,206,149,355,,,,,,,
100024661,2022-01-04 16:00,1.0,,,,254,155,409,,,,,,,
100024661,2022-01-04 17:00,1.0,,,,283,192,475,,,,,,,
100024661,2022-01-04 18:00,1.0,,,,297,193,490,,,,,,,
100024661,2022-01-04 19:00,1.0,,,,176,161,337,,,,,,,
100024661,2022-01-04 20:00,1.0,,,,93,80,173,,,,,,,
100024661,2022-01-04 21:00,1.0,,,,53,49,102,,,,,,,
100024661,2022-01-04 22:00,1.0,,,,56,36,92,,,,,,,
100024661,2022-01-04 23:00,1.0,,,,28,29,57,,,,,,,
100024661,2022-01-05 00:00,1.0,,,,18,13,31,,,,,,,
100024661,2022-01-05 01:00,1.0,,,,11,6,17,,,,,,,
100024661,2022-01-05 02:00,1.0,,,,1,5,6,,,,,,,
100024661,2022-01-05 03:00,1.0,,,,0,2,2,,,,,,,
100024661,2022-01-05 04:00,1.0,,,,4,7,11,,,,,,,
100024661,2022-01-05 05:00,1.0,,,,11,23,34,,,,,,,
100024661,2022-01-05 06:00,1.0,,,,31,58,89,,,,,,,
100024661,2022-01-05 07:00,1.0,,,,108,157,265,,,,,,,
100024661,2022-01-05 08:00,1.0,,,,187,386,573,,,,,,,
100024661,2022-01-05 09:00,1.0,,,,201,263,464,,,,,,,
100024661,2022-01-05 10:00,1.0,,,,108,141,249,,,,,,,
100024661,2022-01-05 11:00,1.0,,,,147,133,280,,,,,,,
100024661,2022-01-05 12:00,1.0,,,,142,109,251,,,,,,,
100024661,2022-01-05 13:00,1.0,,,,141,174,315,,,,,,,
100024661,2022-01-05 14:00,1.0,,,,180,135,315,,,,,,,
100024661,2022-01-05 15:00,1.0,,,,271,180,451,,,,,,,
100024661,2022-01-05 16:00,1.0,,,,239,155,394,,,,,,,
100024661,2022-01-05 17:00,1.0,,,,256,171,427,,,,,,,
100024661,2022-01-05 18:00,1.0,,,,273,203,476,,,,,,,
100024661,2022-01-05 19:00,1.0,,,,186,131,317,,,,,,,
100024661,2022-01-05 20:00,1.0,,,,80,80,160,,,,,,,
100024661,2022-01-05 21:00,1.0,,,,60,59,119,,,,,,,
100024661,2022-01-05 22:00,1.0,,,,59,44,103,,,,,,,
100024661,2022-01-05 23:00,1.0,,,,25,25,50,,,,,,,
100024661,2022-01-06 00:00,1.0,,,,16,9,25,,,,,,,
100024661,2022-01-06 01:00,1.0,,,,8,5,13,,,,,,,
100024661,2022-01-06 02:00,1.0,,,,3,4,7,,,,,,,
100024661,2022-01-06 03:00,1.0,,,,1,2,3,,,,,,,
100024661,2022-01-06 04:00,1.0,,,,4,5,9,,,,,,,
100024661,2022-01-06 05:00,1.0,,,,8,17,25,,,,,,,
100024661,2022-01-06 06:00,1.0,,,,34,55,89,,,,,,,
100024661,2022-01-06 07:00,1.0,,,,88,145,233,,,,,,,
100024661,2022-01-06 08:00,1.0,,,,202,346,548,,,,,,,
100024661,2022-01-06 09:00,1.0,,,,215,263,478,,,,,,,
100024661,2022-01-06 10:00,1.0,,,,120,142,262,,,,,,,
100024661,2022-01-06 11:00,1.0,,,,135,115,250,,,,,,,
100024661,2022-01-06 12:00,1.0,,,,132,142,274,,,,,,,
100024661,2022-01-06 13:00,1.0,,,,156,135,291,,,,,,,
100024661,2022-01-06 14:00,1.0,,,,221,181,402,,,,,,,
100024661,2022-01-06 15:00,1.0,,,,242,180,422,,,,,,,
100024661,2022-01-06 16:00,1.0,,,,249,176,425,,,,,,,
100024661,2022-01-06 17:00,1.0,,,,283,170,453,,,,,,,
100024661,2022-01-06 18:00,1.0,,,,295,237,532,,,,,,,
100024661,2022-01-06 19:00,1.0,,,,189,165,354,,,,,,,
100024661,2022-01-06 20:00,1.0,,,,131,106,237,,,,,,,
100024661,2022-01-06 21:00,1.0,,,,64,73,137,,,,,,,
100024661,2022-01-06 22:00,1.0,,,,65,55,120,,,,,,,
100024661,2022-01-06 23:00,1.0,,,,40,47,87,,,,,,,
100024661,2022-01-07 00:00,1.0,,,,22,14,36,,,,,,,
100024661,2022-01-07 01:00,1.0,,,,14,12,26,,,,,,,
100024661,2022-01-07 02:00,1.0,,,,5,5,10,,,,,,,
100024661,2022-01-07 03:00,1.0,,,,2,4,6,,,,,,,
100024661,2022-01-07 04:00,1.0,,,,6,5,11,,,,,,,
100024661,2022-01-07 05:00,1.0,,,,15,16,31,,,,,,,
100024661,2022-01-07 06:00,1.0,,,,30,49,79,,,,,,,
100024661,2022-01-07 07:00,1.0,,,,75,117,192,,,,,,,
100024661,2022-01-07 08:00,1.0,,,,145,261,406,,,,,,,
100024661,2022-01-07 09:00,1.0,,,,168,185,353,,,,,,,
100024661,2022-01-07 10:00,1.0,,,,116,117,233,,,,,,,
100024661,2022-01-07 11:00,1.0,,,,128,107,235,,,,,,,
100024661,2022-01-07 12:00,1.0,,,,139,137,276,,,,,,,
100024661,2022-01-07 13:00,1.0,,,,167,135,302,,,,,,,
100024661,2022-01-07 14:00,1.0,,,,163,150,313,,,,,,,
100024661,2022-01-07 15:00,1.0,,,,191,122,313,,,,,,,
100024661,2022-01-07 16:00,1.0,,,,218,129,347,,,,,,,
100024661,2022-01-07 17:00,1.0,,,,179,144,323,,,,,,,
100024661,2022-01-07 18:00,1.0,,,,215,177,392,,,,,,,
100024661,2022-01-07 19:00,1.0,,,,124,127,251,,,,,,,
100024661,2022-01-07 20:00,1.0,,,,82,92,174,,,,,,,
100024661,2022-01-07 21:00,1.0,,,,67,36,103,,,,,,,
100024661,2022-01-07 22:00,1.0,,,,35,52,87,,,,,,,
100024661,2022-01-07 23:00,1.0,,,,41,37,78,,,,,,,
100024661,2022-01-08 00:00,1.0,,,,29,32,61,,,,,,,
100024661,2022-01-08 01:00,1.0,,,,20,17,37,,,,,,,
100024661,2022-01-08 02:00,1.0,,,,14,11,25,,,,,,,
100024661,2022-01-08 03:00,1.0,,,,14,5,19,,,,,,,
100024661,2022-01-08 04:00,1.0,,,,4,1,5,,,,,,,
100024661,2022-01-08 05:00,1.0,,,,9,1,10,,,,,,,
100024661,2022-01-08 06:00,1.0,,,,6,5,11,,,,,,,
100024661,2022-01-08 07:00,1.0,,,,13,11,24,,,,,,,
100024661,2022-01-08 08:00,1.0,,,,31,26,57,,,,,,,
100024661,2022-01-08 09:00,1.0,,,,45,47,92,,,,,,,
100024661,2022-01-08 10:00,1.0,,,,68,69,137,,,,,,,
100024661,2022-01-08 11:00,1.0,,,,100,76,176,,,,,,,
100024661,2022-01-08 12:00,1.0,,,,103,116,219,,,,,,,
100024661,2022-01-08 13:00,1.0,,,,128,118,246,,,,,,,
100024661,2022-01-08 14:00,1.0,,,,171,135,306,,,,,,,
100024661,2022-01-08 15:00,1.0,,,,147,152,299,,,,,,,
100024661,2022-01-08 16:00,1.0,,,,139,150,289,,,,,,,
100024661,2022-01-08 17:00,1.0,,,,155,118,273,,,,,,,
100024661,2022-01-08 18:00,1.0,,,,135,114,249,,,,,,,
100024661,2022-01-08 19:00,1.0,,,,106,131,237,,,,,,,
100024661,2022-01-08 20:00,1.0,,,,67,64,131,,,,,,,
100024661,2022-01-08 21:00,1.0,,,,43,45,88,,,,,,,
100024661,2022-01-08 22:00,1.0,,,,46,51,97,,,,,,,
100024661,2022-01-08 23:00,1.0,,,,39,42,81,,,,,,,
100024661,2022-01-09 00:00,1.0,,,,39,22,61,,,,,,,
100024661,2022-01-09 01:00,1.0,,,,35,24,59,,,,,,,
100024661,2022-01-09 02:00,1.0,,,,20,13,33,,,,,,,
100024661,2022-01-09 03:00,1.0,,,,6,16,22,,,,,,,
100024661,2022-01-09 04:00,1.0,,,,3,5,8,,,,,,,
100024661,2022-01-09 05:00,1.0,,,,2,5,7,,,,,,,
100024661,2022-01-09 06:00,1.0,,,,4,6,10,,,,,,,
100024661,2022-01-09 07:00,1.0,,,,7,6,13,,,,,,,
100024661,2022-01-09 08:00,1.0,,,,22,9,31,,,,,,,
100024661,2022-01-09 09:00,1.0,,,,19,33,52,,,,,,,
100024661,2022-01-09 10:00,1.0,,,,55,36,91,,,,,,,
100024661,2022-01-09 11:00,1.0,,,,56,52,108,,,,,,,
100024661,2022-01-09 12:00,1.0,,,,74,55,129,,,,,,,
100024661,2022-01-09 13:00,1.0,,,,79,88,167,,,,,,,
100024661,2022-01-09 14:00,1.0,,,,81,105,186,,,,,,,
100024661,2022-01-09 15:00,1.0,,,,103,112,215,,,,,,,
100024661,2022-01-09 16:00,1.0,,,,108,85,193,,,,,,,
100024661,2022-01-09 17:00,1.0,,,,112,82,194,,,,,,,
100024661,2022-01-09 18:00,1.0,,,,85,73,158,,,,,,,
100024661,2022-01-09 19:00,1.0,,,,70,83,153,,,,,,,
100024661,2022-01-09 20:00,1.0,,,,41,61,102,,,,,,,
100024661,2022-01-09 21:00,1.0,,,,36,42,78,,,,,,,
100024661,2022-01-09 22:00,1.0,,,,29,42,71,,,,,,,
100024661,2022-01-09 23:00,1.0,,,,17,19,36,,,,,,,
100024661,2022-01-10 00:00,1.0,,,,13,19,32,,,,,,,
100024661,2022-01-10 01:00,1.0,,,,7,5,12,,,,,,,
100024661,2022-01-10 02:00,1.0,,,,2,1,3,,,,,,,
100024661,2022-01-10 03:00,1.0,,,,5,2,7,,,,,,,
100024661,2022-01-10 04:00,1.0,,,,4,6,10,,,,,,,
100024661,2022-01-10 05:00,1.0,,,,11,23,34,,,,,,,
100024661,2022-01-10 06:00,1.0,,,,34,71,105,,,,,,,
100024661,2022-01-10 07:00,1.0,,,,104,169,273,,,,,,,
100024661,2022-01-10 08:00,1.0,,,,206,404,610,,,,,,,
100024661,2022-01-10 09:00,1.0,,,,243,295,538,,,,,,,
100024661,2022-01-10 10:00,1.0,,,,131,147,278,,,,,,,
100024661,2022-01-10 11:00,1.0,,,,105,113,218,,,,,,,
100024661,2022-01-10 12:00,1.0,,,,127,100,227,,,,,,,
100024661,2022-01-10 13:00,1.0,,,,150,150,300,,,,,,,
100024661,2022-01-10 14:00,1.0,,,,162,139,301,,,,,,,
100024661,2022-01-10 15:00,1.0,,,,241,154,395,,,,,,,
100024661,2022-01-10 16:00,1.0,,,,273,158,431,,,,,,,
100024661,2022-01-10 17:00,1.0,,,,309,207,516,,,,,,,
100024661,2022-01-10 18:00,1.0,,,,366,240,606,,,,,,,
100024661,2022-01-10 19:00,1.0,,,,212,185,397,,,,,,,
100024661,2022-01-10 20:00,1.0,,,,126,95,221,,,,,,,
100024661,2022-01-10 21:00,1.0,,,,92,70,162,,,,,,,
100024661,2022-01-10 22:00,1.0,,,,61,33,94,,,,,,,
100024661,2022-01-10 23:00,1.0,,,,25,18,43,,,,,,,
100024661,2022-01-11 00:00,1.0,,,,17,10,27,,,,,,,
100024661,2022-01-11 01:00,1.0,,,,4,7,11,,,,,,,
100024661,2022-01-11 02:00,1.0,,,,4,2,6,,,,,,,
100024661,2022-01-11 03:00,1.0,,,,2,2,4,,,,,,,
100024661,2022-01-11 04:00,1.0,,,,4,8,12,,,,,,,
100024661,2022-01-11 05:00,1.0,,,,11,21,32,,,,,,,
100024661,2022-01-11 06:00,1.0,,,,40,54,94,,,,,,,
100024661,2022-01-11 07:00,1.0,,,,122,153,275,,,,,,,
100024661,2022-01-11 08:00,1.0,,,,206,414,620,,,,,,,
100024661,2022-01-11 09:00,1.0,,,,183,298,481,,,,,,,
100024661,2022-01-11 10:00,1.0,,,,114,135,249,,,,,,,
100024661,2022-01-11 11:00,1.0,,,,120,121,241,,,,,,,
100024661,2022-01-11 12:00,1.0,,,,140,106,246,,,,,,,
100024661,2022-01-11 13:00,1.0,,,,141,124,265,,,,,,,
100024661,2022-01-11 14:00,1.0,,,,166,146,312,,,,,,,
100024661,2022-01-11 15:00,1.0,,,,220,183,403,,,,,,,
100024661,2022-01-11 16:00,1.0,,,,243,163,406,,,,,,,
100024661,2022-01-11 17:00,1.0,,,,279,225,504,,,,,,,
100024661,2022-01-11 18:00,1.0,,,,361,240,601,,,,,,,
100024661,2022-01-11 19:00,1.0,,,,233,190,423,,,,,,,
100024661,2022-01-11 20:00,1.0,,,,136,92,228,,,,,,,
100024661,2022-01-11 21:00,1.0,,,,71,74,145,,,,,,,
100024661,2022-01-11 22:00,1.0,,,,55,54,109,,,,,,,
100024661,2022-01-11 23:00,1.0,,,,41,42,83,,,,,,,
100024661,2022-01-12 00:00,1.0,,,,16,15,31,,,,,,,
100024661,2022-01-12 01:00,1.0,,,,2,6,8,,,,,,,
100024661,2022-01-12 02:00,1.0,,,,3,6,9,,,,,,,
100024661,2022-01-12 03:00,1.0,,,,1,3,4,,,,,,,
100024661,2022-01-12 04:00,1.0,,,,7,6,13,,,,,,,
100024661,2022-01-12 05:00,1.0,,,,6,20,26,,,,,,,
100024661,2022-01-12 06:00,1.0,,,,35,55,90,,,,,,,
100024661,2022-01-12 07:00,1.0,,,,103,149,252,,,,,,,
100024661,2022-01-12 08:00,1.0,,,,215,381,596,,,,,,,
100024661,2022-01-12 09:00,1.0,,,,209,255,464,,,,,,,
100024661,2022-01-12 10:00,1.0,,,,140,145,285,,,,,,,
100024661,2022-01-12 11:00,1.0,,,,112,110,222,,,,,,,
100024661,2022-01-12 12:00,1.0,,,,128,118,246,,,,,,,
100024661,2022-01-12 13:00,1.0,,,,124,155,279,,,,,,,
100024661,2022-01-12 14:00,1.0,,,,163,147,310,,,,,,,
100024661,2022-01-12 15:00,1.0,,,,212,150,362,,,,,,,
100024661,2022-01-12 16:00,1.0,,,,259,146,405,,,,,,,
100024661,2022-01-12 17:00,1.0,,,,306,206,512,,,,,,,
100024661,2022-01-12 18:00,1.0,,,,335,202,537,,,,,,,
100024661,2022-01-12 19:00,1.0,,,,228,163,391,,,,,,,
100024661,2022-01-12 20:00,1.0,,,,114,104,218,,,,,,,
100024661,2022-01-12 21:00,1.0,,,,88,56,144,,,,,,,
100024661,2022-01-12 22:00,1.0,,,,82,70,152,,,,,,,
100024661,2022-01-12 23:00,1.0,,,,40,42,82,,,,,,,
100024661,2022-01-13 00:00,1.0,,,,20,25,45,,,,,,,
100024661,2022-01-13 01:00,1.0,,,,3,7,10,,,,,,,
100024661,2022-01-13 02:00,1.0,,,,6,2,8,,,,,,,
100024661,2022-01-13 03:00,1.0,,,,2,5,7,,,,,,,
100024661,2022-01-13 04:00,1.0,,,,8,3,11,,,,,,,
100024661,2022-01-13 05:00,1.0,,,,11,23,34,,,,,,,
100024661,2022-01-13 06:00,1.0,,,,36,60,96,,,,,,,
100024661,2022-01-13 07:00,1.0,,,,106,156,262,,,,,,,
100024661,2022-01-13 08:00,1.0,,,,208,387,595,,,,,,,
100024661,2022-01-13 09:00,1.0,,,,196,273,469,,,,,,,
100024661,2022-01-13 10:00,1.0,,,,126,156,282,,,,,,,
100024661,2022-01-13 11:00,1.0,,,,108,107,215,,,,,,,
100024661,2022-01-13 12:00,1.0,,,,120,124,244,,,,,,,
100024661,2022-01-13 13:00,1.0,,,,152,145,297,,,,,,,
100024661,2022-01-13 14:00,1.0,,,,168,135,303,,,,,,,
100024661,2022-01-13 15:00,1.0,,,,225,149,374,,,,,,,
100024661,2022-01-13 16:00,1.0,,,,245,169,414,,,,,,,
100024661,2022-01-13 17:00,1.0,,,,301,222,523,,,,,,,
100024661,2022-01-13 18:00,1.0,,,,345,253,598,,,,,,,
100024661,2022-01-13 19:00,1.0,,,,232,202,434,,,,,,,
100024661,2022-01-13 20:00,1.0,,,,131,93,224,,,,,,,
100024661,2022-01-13 21:00,1.0,,,,83,90,173,,,,,,,
100024661,2022-01-13 22:00,1.0,,,,80,85,165,,,,,,,
100024661,2022-01-13 23:00,1.0,,,,41,52,93,,,,,,,
100024661,2022-01-14 00:00,1.0,,,,25,21,46,,,,,,,
100024661,2022-01-14 01:00,1.0,,,,15,8,23,,,,,,,
100024661,2022-01-14 02:00,1.0,,,,3,9,12,,,,,,,
100024661,2022-01-14 03:00,1.0,,,,4,3,7,,,,,,,
100024661,2022-01-14 04:00,1.0,,,,12,4,16,,,,,,,
100024661,2022-01-14 05:00,1.0,,,,9,17,26,,,,,,,
100024661,2022-01-14 06:00,1.0,,,,35,58,93,,,,,,,
100024661,2022-01-14 07:00,1.0,,,,82,139,221,,,,,,,
100024661,2022-01-14 08:00,1.0,,,,149,279,428,,,,,,,
100024661,2022-01-14 09:00,1.0,,,,188,254,442,,,,,,,
100024661,2022-01-14 10:00,1.0,,,,118,126,244,,,,,,,
100024661,2022-01-14 11:00,1.0,,,,133,123,256,,,,,,,
100024661,2022-01-14 12:00,1.0,,,,127,143,270,,,,,,,
100024661,2022-01-14 13:00,1.0,,,,143,155,298,,,,,,,
100024661,2022-01-14 14:00,1.0,,,,176,153,329,,,,,,,
100024661,2022-01-14 15:00,1.0,,,,212,149,361,,,,,,,
100024661,2022-01-14 16:00,1.0,,,,194,137,331,,,,,,,
100024661,2022-01-14 17:00,1.0,,,,225,180,405,,,,,,,
100024661,2022-01-14 18:00,1.0,,,,240,212,452,,,,,,,
100024661,2022-01-14 19:00,1.0,,,,197,171,368,,,,,,,
100024661,2022-01-14 20:00,1.0,,,,105,102,207,,,,,,,
100024661,2022-01-14 21:00,1.0,,,,88,75,163,,,,,,,
100024661,2022-01-14 22:00,1.0,,,,57,46,103,,,,,,,
100024661,2022-01-14 23:00,1.0,,,,47,52,99,,,,,,,
100024661,2022-01-15 00:00,1.0,,,,38,38,76,,,,,,,
100024661,2022-01-15 01:00,1.0,,,,25,16,41,,,,,,,
100024661,2022-01-15 02:00,1.0,,,,17,11,28,,,,,,,
100024661,2022-01-15 03:00,1.0,,,,6,3,9,,,,,,,
100024661,2022-01-15 04:00,1.0,,,,10,6,16,,,,,,,
100024661,2022-01-15 05:00,1.0,,,,4,9,13,,,,,,,
100024661,2022-01-15 06:00,1.0,,,,13,4,17,,,,,,,
100024661,2022-01-15 07:00,1.0,,,,16,8,24,,,,,,,
100024661,2022-01-15 08:00,1.0,,,,28,24,52,,,,,,,
100024661,2022-01-15 09:00,1.0,,,,63,63,126,,,,,,,
100024661,2022-01-15 10:00,1.0,,,,84,83,167,,,,,,,
100024661,2022-01-15 11:00,1.0,,,,105,93,198,,,,,,,
100024661,2022-01-15 12:00,1.0,,,,129,121,250,,,,,,,
100024661,2022-01-15 13:00,1.0,,,,143,151,294,,,,,,,
100024661,2022-01-15 14:00,1.0,,,,176,165,341,,,,,,,
100024661,2022-01-15 15:00,1.0,,,,147,168,315,,,,,,,
100024661,2022-01-15 16:00,1.0,,,,166,153,319,,,,,,,
100024661,2022-01-15 17:00,1.0,,,,159,159,318,,,,,,,
100024661,2022-01-15 18:00,1.0,,,,149,157,306,,,,,,,
100024661,2022-01-15 19:00,1.0,,,,137,150,287,,,,,,,
100024661,2022-01-15 20:00,1.0,,,,66,93,159,,,,,,,
100024661,2022-01-15 21:00,1.0,,,,44,61,105,,,,,,,
100024661,2022-01-15 22:00,1.0,,,,56,42,98,,,,,,,
100024661,2022-01-15 23:00,1.0,,,,47,57,104,,,,,,,
100024661,2022-01-16 00:00,1.0,,,,38,37,75,,,,,,,
100024661,2022-01-16 01:00,1.0,,,,37,21,58,,,,,,,
100024661,2022-01-16 02:00,1.0,,,,31,17,48,,,,,,,
100024661,2022-01-16 03:00,1.0,,,,8,14,22,,,,,,,
100024661,2022-01-16 04:00,1.0,,,,12,6,18,,,,,,,
100024661,2022-01-16 05:00,1.0,,,,6,5,11,,,,,,,
100024661,2022-01-16 06:00,1.0,,,,7,6,13,,,,,,,
100024661,2022-01-16 07:00,1.0,,,,8,8,16,,,,,,,
100024661,2022-01-16 08:00,1.0,,,,21,13,34,,,,,,,
100024661,2022-01-16 09:00,1.0,,,,41,35,76,,,,,,,
100024661,2022-01-16 10:00,1.0,,,,46,43,89,,,,,,,
100024661,2022-01-16 11:00,1.0,,,,86,86,172,,,,,,,
100024661,2022-01-16 12:00,1.0,,,,92,95,187,,,,,,,
100024661,2022-01-16 13:00,1.0,,,,83,109,192,,,,,,,
100024661,2022-01-16 14:00,1.0,,,,101,115,216,,,,,,,
100024661,2022-01-16 15:00,1.0,,,,95,102,197,,,,,,,
100024661,2022-01-16 16:00,1.0,,,,94,92,186,,,,,,,
100024661,2022-01-16 17:00,1.0,,,,104,59,163,,,,,,,
100024661,2022-01-16 18:00,1.0,,,,98,75,173,,,,,,,
100024661,2022-01-16 19:00,1.0,,,,65,77,142,,,,,,,
100024661,2022-01-16 20:00,1.0,,,,40,48,88,,,,,,,
100024661,2022-01-16 21:00,1.0,,,,38,42,80,,,,,,,
100024661,2022-01-16 22:00,1.0,,,,31,31,62,,,,,,,
100024661,2022-01-16 23:00,1.0,,,,17,17,34,,,,,,,
100024661,2022-01-17 00:00,1.0,,,,12,15,27,,,,,,,
100024661,2022-01-17 01:00,1.0,,,,2,5,7,,,,,,,
100024661,2022-01-17 02:00,1.0,,,,3,5,8,,,,,,,
100024661,2022-01-17 03:00,1.0,,,,3,1,4,,,,,,,
100024661,2022-01-17 04:00,1.0,,,,3,2,5,,,,,,,
100024661,2022-01-17 05:00,1.0,,,,9,15,24,,,,,,,
100024661,2022-01-17 06:00,1.0,,,,32,56,88,,,,,,,
100024661,2022-01-17 07:00,1.0,,,,109,143,252,,,,,,,
100024661,2022-01-17 08:00,1.0,,,,165,309,474,,,,,,,
100024661,2022-01-17 09:00,1.0,,,,149,222,371,,,,,,,
100024661,2022-01-17 10:00,1.0,,,,75,73,148,,,,,,,
100024661,2022-01-17 11:00,1.0,,,,64,52,116,,,,,,,
100024661,2022-01-17 12:00,1.0,,,,88,71,159,,,,,,,
100024661,2022-01-17 13:00,1.0,,,,110,82,192,,,,,,,
100024661,2022-01-17 14:00,1.0,,,,119,121,240,,,,,,,
100024661,2022-01-17 15:00,1.0,,,,195,144,339,,,,,,,
100024661,2022-01-17 16:00,1.0,,,,225,149,374,,,,,,,
100024661,2022-01-17 17:00,1.0,,,,261,169,430,,,,,,,
100024661,2022-01-17 18:00,1.0,,,,300,176,476,,,,,,,
100024661,2022-01-17 19:00,1.0,,,,191,175,366,,,,,,,
100024661,2022-01-17 20:00,1.0,,,,96,97,193,,,,,,,
100024661,2022-01-17 21:00,1.0,,,,76,71,147,,,,,,,
100024661,2022-01-17 22:00,1.0,,,,61,48,109,,,,,,,
100024661,2022-01-17 23:00,1.0,,,,29,27,56,,,,,,,
100024661,2022-01-18 00:00,1.0,,,,9,15,24,,,,,,,
100024661,2022-01-18 01:00,1.0,,,,5,6,11,,,,,,,
100024661,2022-01-18 02:00,1.0,,,,4,4,8,,,,,,,
100024661,2022-01-18 03:00,1.0,,,,3,1,4,,,,,,,
100024661,2022-01-18 04:00,1.0,,,,7,6,13,,,,,,,
100024661,2022-01-18 05:00,1.0,,,,11,21,32,,,,,,,
100024661,2022-01-18 06:00,1.0,,,,37,68,105,,,,,,,
100024661,2022-01-18 07:00,1.0,,,,110,159,269,,,,,,,
100024661,2022-01-18 08:00,1.0,,,,214,387,601,,,,,,,
100024661,2022-01-18 09:00,1.0,,,,262,281,543,,,,,,,
100024661,2022-01-18 10:00,1.0,,,,119,154,273,,,,,,,
100024661,2022-01-18 11:00,1.0,,,,153,137,290,,,,,,,
100024661,2022-01-18 12:00,1.0,,,,135,132,267,,,,,,,
100024661,2022-01-18 13:00,1.0,,,,156,162,318,,,,,,,
100024661,2022-01-18 14:00,1.0,,,,173,157,330,,,,,,,
100024661,2022-01-18 15:00,1.0,,,,224,184,408,,,,,,,
100024661,2022-01-18 16:00,1.0,,,,271,161,432,,,,,,,
100024661,2022-01-18 17:00,1.0,,,,320,244,564,,,,,,,
100024661,2022-01-18 18:00,1.0,,,,354,289,643,,,,,,,
100024661,2022-01-18 19:00,1.0,,,,225,181,406,,,,,,,
100024661,2022-01-18 20:00,1.0,,,,155,101,256,,,,,,,
100024661,2022-01-18 21:00,1.0,,,,115,90,205,,,,,,,
100024661,2022-01-18 22:00,1.0,,,,75,73,148,,,,,,,
100024661,2022-01-18 23:00,1.0,,,,49,47,96,,,,,,,
100024661,2022-01-19 00:00,1.0,,,,15,27,42,,,,,,,
100024661,2022-01-19 01:00,1.0,,,,11,6,17,,,,,,,
100024661,2022-01-19 02:00,1.0,,,,9,6,15,,,,,,,
100024661,2022-01-19 03:00,1.0,,,,2,2,4,,,,,,,
100024661,2022-01-19 04:00,1.0,,,,7,9,16,,,,,,,
100024661,2022-01-19 05:00,1.0,,,,10,23,33,,,,,,,
100024661,2022-01-19 06:00,1.0,,,,45,58,103,,,,,,,
100024661,2022-01-19 07:00,1.0,,,,104,173,277,,,,,,,
100024661,2022-01-19 08:00,1.0,,,,235,392,627,,,,,,,
100024661,2022-01-19 09:00,1.0,,,,219,295,514,,,,,,,
100024661,2022-01-19 10:00,1.0,,,,133,172,305,,,,,,,
100024661,2022-01-19 11:00,1.0,,,,148,146,294,,,,,,,
100024661,2022-01-19 12:00,1.0,,,,131,137,268,,,,,,,
100024661,2022-01-19 13:00,1.0,,,,148,146,294,,,,,,,
100024661,2022-01-19 14:00,1.0,,,,186,168,354,,,,,,,
100024661,2022-01-19 15:00,1.0,,,,230,183,413,,,,,,,
100024661,2022-01-19 16:00,1.0,,,,265,186,451,,,,,,,
100024661,2022-01-19 17:00,1.0,,,,306,229,535,,,,,,,
100024661,2022-01-19 18:00,1.0,,,,373,257,630,,,,,,,
100024661,2022-01-19 19:00,1.0,,,,278,221,499,,,,,,,
100024661,2022-01-19 20:00,1.0,,,,118,122,240,,,,,,,
100024661,2022-01-19 21:00,1.0,,,,85,86,171,,,,,,,
100024661,2022-01-19 22:00,1.0,,,,69,70,139,,,,,,,
100024661,2022-01-19 23:00,1.0,,,,51,63,114,,,,,,,
100024661,2022-01-20 00:00,1.0,,,,26,20,46,,,,,,,